Lamar, CO

6:13 AM MDT on August 19, 2017 (GMT -0600)
Lamar Municipal

Weather History for KLAA - October, 2012

Change the Weather History Date:

Tuesday, October 30, 2012

  Actual Average Record
Temperature  
Mean Temperature 55 °F 47 °F  
Max Temperature 78 °F 64 °F 89 °F (1935)
Min Temperature 32 °F 30 °F 11 °F (1993)
Degree Days  
Heating Degree Days 10 18  
Month to date heating degree days 399 366  
Since 1 July heating degree days 448 449  
Cooling Degree Days 0 0  
Month to date cooling degree days 1 8  
Year to date cooling degree days 1626 1120  
Growing Degree Days 4 (Base 50)    
Moisture  
Dew Point 29 °F    
Average Humidity 48    
Maximum Humidity 78    
Minimum Humidity 18    
Precipitation  
Precipitation 0.00 in 0.02 in 1.07 in (1979)
Month to date precipitation 0.43  
Year to date precipitation 5.93  
Sea Level Pressure  
Sea Level Pressure 30.02 in    
Wind  
Wind Speed 6 mph (West)    
Max Wind Speed 17 mph    
Max Gust Speed 21 mph    
Visibility 10 miles    
Events      
T = Trace of Precipitation, MM = Missing Value Source: NWS Daily Summary

Daily Weather History Graph

Daily Weather History Graph

Search for Another Location

Airport or City:

Trip Planner

Search our weather history database for the weather conditions in past years. The results will help you decide how hot, cold, wet, or windy it might be!

Date:

Astronomy

Oct. 30, 2012 Rise Set
Actual Time 7:15 AM MDT 5:53 PM MDT
Civil Twilight 6:47 AM MDT 6:20 PM MDT
Nautical Twilight 6:16 AM MDT 6:51 PM MDT
Astronomical Twilight 5:46 AM MDT 7:22 PM MDT
Moon 6:25 PM MDT (10/30) 8:02 AM MDT (10/30)
Length of Visible Light 11h 32m
Length of Day
10h 38m
Full, 99% of the Moon is Illuminated
Oct 30
Full
Nov 6
Last Quarter
Nov 13
New
Nov 20
First Quarter
Nov 28
Full

Hourly Weather History & Observations

Time (MDT) Temp. Windchill Dew Point Humidity Pressure Visibility Wind Dir Wind Speed Gust Speed Precip Events Conditions
12:53 AM 39.0 °F - 28.9 °F 67% 30.01 in 10.0 mi North - - N/A   Clear
1:53 AM 37.0 °F 32.4 °F 28.0 °F 70% 30.01 in 10.0 mi WSW 5.8 mph - N/A   Clear
2:53 AM 36.0 °F 31.1 °F 28.0 °F 73% 30.01 in 10.0 mi West 5.8 mph - N/A   Clear
3:53 AM 34.0 °F 27.2 °F 27.0 °F 75% 30.01 in 10.0 mi SW 8.1 mph - N/A   Clear
5:53 AM 34.0 °F 28.0 °F 27.0 °F 75% 30.05 in 10.0 mi SW 6.9 mph - N/A   Clear
6:53 AM 32.0 °F 25.6 °F 26.1 °F 79% 30.07 in 10.0 mi West 6.9 mph - N/A   Clear
7:53 AM 39.0 °F 33.4 °F 28.9 °F 67% 30.09 in 10.0 mi WSW 8.1 mph - N/A   Clear
8:53 AM 46.9 °F - 28.0 °F 48% 30.10 in 10.0 mi WSW 10.4 mph - N/A   Clear
9:53 AM 54.0 °F - 28.9 °F 38% 30.08 in 10.0 mi West 11.5 mph - N/A   Clear
10:53 AM 62.1 °F - 30.0 °F 30% 30.07 in 10.0 mi WSW 6.9 mph - N/A   Clear
11:53 AM 68.0 °F - 32.0 °F 26% 30.04 in 10.0 mi West 9.2 mph - N/A   Clear
12:53 PM 72.0 °F - 32.0 °F 23% 30.00 in 10.0 mi WNW 8.1 mph - N/A   Clear
1:53 PM 75.0 °F - 30.0 °F 19% 29.97 in 10.0 mi NW 3.5 mph - N/A   Clear
2:53 PM 75.9 °F - 28.0 °F 17% 29.95 in 10.0 mi North 8.1 mph 18.4 mph N/A   Clear
3:53 PM 75.9 °F - 28.0 °F 17% 29.95 in 10.0 mi North 9.2 mph - N/A   Clear
4:53 PM 73.9 °F - 28.0 °F 18% 29.95 in 10.0 mi North 9.2 mph - N/A   Clear
5:53 PM 64.0 °F - 30.9 °F 29% 29.99 in 10.0 mi ENE 6.9 mph - N/A   Clear
6:53 PM 61.0 °F - 30.9 °F 32% 30.01 in 10.0 mi ENE 4.6 mph - N/A   Clear
7:53 PM 51.1 °F - 30.9 °F 46% 30.04 in 10.0 mi East 4.6 mph - N/A   Clear
8:53 PM 51.1 °F - 32.0 °F 48% 30.03 in 10.0 mi Calm Calm - N/A   Clear
9:53 PM 43.0 °F 41.3 °F 30.0 °F 60% 30.04 in 10.0 mi SSW 3.5 mph - N/A   Clear
10:53 PM 42.1 °F 40.2 °F 30.0 °F 62% 30.03 in 10.0 mi SW 3.5 mph - N/A   Clear
11:53 PM 41.0 °F - 30.0 °F 65% 30.02 in 10.0 mi Calm Calm - N/A   Clear